TimeCDT,TemperatureF,Dew PointF,Humidity,Sea Level PressureIn,VisibilityMPH,Wind Direction,Wind SpeedMPH,Gust SpeedMPH,PrecipitationIn,Events,Conditions,WindDirDegrees,DateUTC
12:54 AM,37.0,33.1,86,30.30,10.0,Calm,Calm,-,N/A,,Clear,0,2012-10-06 05:54:00
1:54 AM,39.0,34.0,82,30.31,10.0,SW,3.5,-,N/A,,Clear,230,2012-10-06 06:54:00
2:54 AM,41.0,33.1,73,30.31,10.0,Calm,Calm,-,N/A,,Clear,0,2012-10-06 07:54:00
3:54 AM,42.1,33.1,70,30.30,10.0,Calm,Calm,-,N/A,,Clear,0,2012-10-06 08:54:00
4:54 AM,41.0,32.0,70,30.30,10.0,NW,4.6,-,N/A,,Clear,320,2012-10-06 09:54:00
5:54 AM,42.1,30.0,62,30.30,10.0,NNW,4.6,-,N/A,,Clear,340,2012-10-06 10:54:00
6:54 AM,41.0,28.9,62,30.30,10.0,NNW,5.8,-,N/A,,Clear,340,2012-10-06 11:54:00
7:54 AM,41.0,27.0,57,30.32,10.0,North,9.2,-,N/A,,Clear,350,2012-10-06 12:54:00
8:54 AM,42.1,26.1,53,30.34,10.0,North,9.2,-,N/A,,Clear,350,2012-10-06 13:54:00
9:54 AM,45.0,24.1,44,30.34,10.0,North,5.8,-,N/A,,Clear,350,2012-10-06 14:54:00
10:54 AM,44.1,23.0,43,30.36,10.0,North,12.7,-,N/A,,Scattered Clouds,360,2012-10-06 15:54:00
11:54 AM,45.0,24.1,44,30.36,10.0,NNW,8.1,-,N/A,,Partly Cloudy,340,2012-10-06 16:54:00
12:54 PM,45.0,26.1,48,30.36,10.0,NNW,6.9,-,N/A,,Clear,340,2012-10-06 17:54:00
1:54 PM,46.0,25.0,44,30.34,10.0,NNW,4.6,-,N/A,,Clear,330,2012-10-06 18:54:00
2:54 PM,45.0,24.1,44,30.32,10.0,NW,6.9,-,N/A,,Clear,320,2012-10-06 19:54:00
3:54 PM,46.0,25.0,44,30.30,10.0,North,6.9,-,N/A,,Mostly Cloudy,350,2012-10-06 20:54:00
4:54 PM,46.0,26.1,46,30.30,10.0,Variable,4.6,-,N/A,,Mostly Cloudy,0,2012-10-06 21:54:00
5:54 PM,46.0,26.1,46,30.30,10.0,North,6.9,-,N/A,,Mostly Cloudy,360,2012-10-06 22:54:00
6:54 PM,45.0,26.1,48,30.30,10.0,WNW,5.8,-,N/A,,Mostly Cloudy,300,2012-10-06 23:54:00
7:54 PM,44.1,27.0,51,30.31,10.0,West,3.5,-,N/A,,Overcast,280,2012-10-07 00:54:00
8:54 PM,44.1,28.0,53,30.32,10.0,West,3.5,-,N/A,,Overcast,280,2012-10-07 01:54:00
9:54 PM,43.0,27.0,53,30.33,10.0,Calm,Calm,-,N/A,,Mostly Cloudy,0,2012-10-07 02:54:00
10:54 PM,42.1,28.9,60,30.32,10.0,Calm,Calm,-,N/A,,Overcast,0,2012-10-07 03:54:00
11:54 PM,42.1,28.9,60,30.32,10.0,NW,4.6,-,N/A,,Overcast,320,2012-10-07 04:54:00
11:57 PM,42.8,28.4,57,30.31,10.0,NW,3.5,-,N/A,,Overcast,320,2012-10-07 04:57:00